Johnstown, PA

3:18 AM EST on December 10, 2016 (GMT -0500)
Johnstown-Cambria County

Weather History for KJST - March, 2013

Change the Weather History Date:

Thursday, March 28, 2013

  Actual Average Record
Temperature  
Mean Temperature 30 °F 40 °F  
Max Temperature 33 °F 49 °F 84 °F (1989)
Min Temperature 28 °F 32 °F 11 °F (2015)
Degree Days  
Heating Degree Days 34 25  
Month to date heating degree days 840  
Since 1 July heating degree days 5719  
Cooling Degree Days 0 0  
Month to date cooling degree days 0  
Year to date cooling degree days 0  
Moisture  
Dew Point 27 °F    
Average Humidity 89    
Maximum Humidity 93    
Minimum Humidity 75    
Precipitation  
Precipitation 0.02 in 0.13 in 1.06 in (1977)
Month to date precipitation 2.88  
Year to date precipitation 8.11  
Sea Level Pressure  
Sea Level Pressure 30.10 in    
Wind  
Wind Speed 12 mph (WNW)    
Max Wind Speed 20 mph    
Max Gust Speed 26 mph    
Visibility 4 miles    
Events Fog , Snow    
T = Trace of Precipitation, MM = Missing Value Source: NWS Daily Summary

Daily Weather History Graph

Daily Weather History Graph

Search for Another Location

Airport or City:

Trip Planner

Search our weather history database for the weather conditions in past years. The results will help you decide how hot, cold, wet, or windy it might be!

Date:

Astronomy

Mar. 28, 2013 Rise Set
Actual Time 7:05 AM EDT 7:35 PM EDT
Civil Twilight 6:37 AM EDT 8:03 PM EDT
Nautical Twilight 6:05 AM EDT 8:35 PM EDT
Astronomical Twilight 5:32 AM EDT 9:08 PM EDT
Moon 9:26 PM EDT (3/28) 7:31 AM EDT (3/28)
Length of Visible Light 13h 25m
Length of Day
12h 30m
Full, 98% of the Moon is Illuminated
Mar 28
Full
Apr 3
Last Quarter
Apr 10
New
Apr 18
First Quarter
Apr 25
Full

Hourly Weather History & Observations

Time (EDT) Temp. Windchill Dew Point Humidity Pressure Visibility Wind Dir Wind Speed Gust Speed Precip Events Conditions
12:12 AM 28.4 °F 18.5 °F 26.6 °F 93% 30.04 in 2.0 mi West 11.5 mph - 0.00 in Snow Light Snow
12:21 AM 28.4 °F 18.5 °F 26.6 °F 93% 30.04 in 1.8 mi West 11.5 mph 18.4 mph 0.00 in Snow Light Snow
12:33 AM 30.2 °F 20.8 °F 26.6 °F 86% 30.03 in 3.0 mi West 11.5 mph - 0.00 in Snow Light Snow
12:43 AM 30.2 °F 20.2 °F 26.6 °F 86% 30.03 in 2.5 mi West 12.7 mph - 0.00 in Snow Light Snow
12:52 AM 28.4 °F 17.5 °F 26.6 °F 93% 30.03 in 4.0 mi West 13.8 mph 18.4 mph 0.00 in Snow Light Snow
12:54 AM 28.9 °F 19.2 °F 26.1 °F 89% 30.11 in 4.0 mi West 11.5 mph 18.4 mph 0.00 in Snow Light Snow
1:45 AM 28.4 °F 18.0 °F 26.6 °F 93% 30.03 in 7.0 mi West 12.7 mph - 0.00 in   Overcast
1:54 AM 28.9 °F 19.2 °F 26.1 °F 89% 30.10 in 9.0 mi West 11.5 mph - 0.00 in   Overcast
2:24 AM 28.4 °F 18.0 °F 26.6 °F 93% 30.03 in 2.0 mi West 12.7 mph - 0.00 in Snow Light Snow
2:32 AM 28.4 °F 18.0 °F 26.6 °F 93% 30.02 in 1.2 mi West 12.7 mph - 0.00 in Snow Light Snow
2:48 AM 28.4 °F 18.5 °F 26.6 °F 93% 30.02 in 3.0 mi West 11.5 mph - 0.00 in Snow Light Snow
2:54 AM 28.9 °F 18.6 °F 27.0 °F 92% 30.09 in 4.0 mi West 12.7 mph - 0.00 in Snow Light Snow
3:23 AM 28.4 °F 18.0 °F 26.6 °F 93% 30.02 in 2.5 mi West 12.7 mph 20.7 mph 0.00 in Snow Light Snow
3:47 AM 28.4 °F 18.0 °F 26.6 °F 93% 30.01 in 5.0 mi West 12.7 mph 20.7 mph 0.00 in Snow Light Snow
3:54 AM 28.9 °F 17.3 °F 26.1 °F 89% 30.08 in 6.0 mi West 16.1 mph 20.7 mph 0.00 in Snow Light Snow
4:04 AM 28.4 °F 19.1 °F 26.6 °F 93% 30.01 in 1.8 mi West 10.4 mph 20.7 mph 0.00 in Snow Light Snow
4:16 AM 28.4 °F 19.1 °F 26.6 °F 93% 30.01 in 1.2 mi West 10.4 mph - 0.01 in Snow Light Snow
4:21 AM 28.4 °F 20.4 °F 26.6 °F 93% 30.01 in 2.0 mi WNW 8.1 mph - 0.01 in Snow Light Snow
4:32 AM 28.4 °F 19.1 °F 26.6 °F 93% 30.01 in 4.0 mi West 10.4 mph - 0.01 in Snow Light Snow
4:54 AM 28.9 °F 20.4 °F 26.1 °F 89% 30.08 in 4.0 mi West 9.2 mph - 0.01 in Snow Light Snow
5:04 AM 28.4 °F 19.1 °F 26.6 °F 93% 30.02 in 1.8 mi WNW 10.4 mph - 0.00 in Snow Light Snow
5:14 AM 28.4 °F 18.0 °F 26.6 °F 93% 30.02 in 3.0 mi West 12.7 mph - 0.00 in Snow Light Snow
5:27 AM 28.4 °F 17.5 °F 26.6 °F 93% 30.01 in 8.0 mi West 13.8 mph - 0.00 in   Overcast
5:54 AM 28.9 °F 18.6 °F 26.1 °F 89% 30.09 in 8.0 mi West 12.7 mph - 0.00 in   Overcast
6:33 AM 28.4 °F 17.5 °F 26.6 °F 93% 30.02 in 2.5 mi West 13.8 mph 18.4 mph 0.00 in Snow Light Snow
6:49 AM 28.4 °F 18.0 °F 26.6 °F 93% 30.02 in 1.5 mi West 12.7 mph - 0.00 in Snow Light Snow
6:54 AM 28.9 °F 18.6 °F 27.0 °F 92% 30.10 in 1.5 mi West 12.7 mph 19.6 mph 0.00 in Snow Light Snow
7:23 AM 28.4 °F 17.0 °F 26.6 °F 93% 30.04 in 1.0 mi West 15.0 mph - 0.00 in Snow Light Snow
7:32 AM 28.4 °F 16.2 °F 26.6 °F 93% 30.04 in 0.8 mi WNW 17.3 mph 23.0 mph 0.00 in Snow Light Snow
7:54 AM 28.9 °F 16.9 °F 27.0 °F 92% 30.12 in 0.5 mi NW 17.3 mph - 0.00 in Fog , Snow Light Snow
8:17 AM 28.4 °F 15.4 °F 26.6 °F 93% 30.05 in 1.2 mi WNW 19.6 mph 26.5 mph 0.00 in Snow Light Snow
8:46 AM 28.4 °F 17.0 °F 26.6 °F 93% 30.06 in 1.0 mi WNW 15.0 mph - 0.00 in Snow Light Snow
8:50 AM 28.4 °F 18.0 °F 26.6 °F 93% 30.06 in 0.8 mi WNW 12.7 mph - 0.00 in Snow Light Snow
8:54 AM 28.9 °F 18.2 °F 27.0 °F 92% 30.14 in 0.8 mi WNW 13.8 mph - 0.00 in Snow Light Snow
9:44 AM 28.4 °F 18.0 °F 26.6 °F 93% 30.08 in 1.0 mi WNW 12.7 mph - 0.01 in Snow Light Snow
9:52 AM 28.4 °F 17.5 °F 26.6 °F 93% 30.08 in 0.8 mi NW 13.8 mph - 0.01 in Snow Light Snow
9:54 AM 28.9 °F 18.2 °F 27.0 °F 92% 30.16 in 0.8 mi NW 13.8 mph - 0.01 in Snow Light Snow
10:06 AM 28.4 °F 17.0 °F 26.6 °F 93% 30.08 in 1.2 mi WNW 15.0 mph - 0.00 in Snow Light Snow
10:54 AM 30.0 °F 20.0 °F 27.0 °F 88% 30.17 in 0.8 mi WNW 12.7 mph - 0.00 in Snow Light Snow
11:10 AM 30.2 °F 18.5 °F 26.6 °F 86% 30.10 in 1.2 mi WNW 17.3 mph - 0.00 in Snow Light Snow
11:29 AM 30.2 °F 20.2 °F 26.6 °F 86% 30.10 in 2.0 mi WNW 12.7 mph - 0.00 in Snow Light Snow
11:51 AM 30.2 °F 19.8 °F 26.6 °F 86% 30.11 in 4.0 mi NW 13.8 mph - 0.00 in Snow Light Snow
11:54 AM 30.0 °F 19.5 °F 27.0 °F 88% 30.18 in 4.0 mi NW 13.8 mph - 0.00 in Snow Light Snow
12:13 PM 30.2 °F 19.3 °F 26.6 °F 86% 30.11 in 1.8 mi NW 15.0 mph - 0.00 in Snow Light Snow
12:40 PM 30.2 °F 19.3 °F 26.6 °F 86% 30.10 in 0.8 mi NW 15.0 mph - 0.00 in Snow Light Snow
12:49 PM 30.2 °F 20.8 °F 26.6 °F 86% 30.11 in 1.2 mi WNW 11.5 mph - 0.00 in Snow Light Snow
12:54 PM 30.0 °F 19.1 °F 27.0 °F 88% 30.18 in 2.0 mi WNW 15.0 mph - 0.00 in Snow Light Snow
1:02 PM 30.2 °F 18.9 °F 26.6 °F 86% 30.11 in 0.8 mi WNW 16.1 mph - 0.00 in Snow Light Snow
1:16 PM 30.2 °F 19.8 °F 26.6 °F 86% 30.11 in 2.0 mi WNW 13.8 mph - 0.00 in Snow Light Snow
1:27 PM 30.2 °F 20.2 °F 26.6 °F 86% 30.11 in 3.0 mi WNW 12.7 mph - 0.00 in Snow Light Snow
1:34 PM 30.2 °F 20.2 °F 26.6 °F 86% 30.11 in 1.8 mi WNW 12.7 mph - 0.00 in Snow Light Snow
1:47 PM 30.2 °F 20.8 °F 28.4 °F 93% 30.11 in 0.8 mi WNW 11.5 mph - 0.00 in Snow Light Snow
1:52 PM 30.2 °F 19.8 °F 28.4 °F 93% 30.11 in 1.0 mi WNW 13.8 mph - 0.00 in Snow Light Snow
1:54 PM 30.0 °F 19.5 °F 28.0 °F 92% 30.19 in 1.0 mi WNW 13.8 mph 21.9 mph 0.00 in Snow Light Snow
2:02 PM 30.2 °F 19.8 °F 28.4 °F 93% 30.11 in 2.0 mi WNW 13.8 mph 21.9 mph 0.00 in Snow Light Snow
2:17 PM 30.2 °F 20.2 °F 28.4 °F 93% 30.11 in 1.5 mi WNW 12.7 mph - 0.00 in Snow Light Snow
2:32 PM 30.2 °F 20.8 °F 28.4 °F 93% 30.11 in 2.0 mi WNW 11.5 mph - 0.00 in Snow Light Snow
2:54 PM 30.9 °F 22.2 °F 28.0 °F 89% 30.19 in 2.5 mi WNW 10.4 mph - 0.00 in Snow Light Snow
3:05 PM 30.2 °F 20.2 °F 28.4 °F 93% 30.11 in 4.0 mi WNW 12.7 mph - 0.00 in   Overcast
3:54 PM 32.0 °F 22.1 °F 28.0 °F 85% 30.18 in 9.0 mi WNW 13.8 mph - 0.00 in   Overcast
4:48 PM 32.0 °F 21.6 °F 28.4 °F 87% 30.11 in 1.8 mi WNW 15.0 mph - 0.00 in Snow Light Snow
4:54 PM 32.0 °F 22.1 °F 28.0 °F 85% 30.19 in 1.5 mi WNW 13.8 mph - 0.00 in Snow Light Snow
4:58 PM 32.0 °F 22.5 °F 28.4 °F 87% 30.11 in 2.0 mi NW 12.7 mph - 0.00 in Snow Light Snow
5:06 PM 32.0 °F 23.0 °F 28.4 °F 87% 30.11 in 8.0 mi NW 11.5 mph - 0.00 in   Overcast
5:20 PM 33.8 °F 25.3 °F 28.4 °F 81% 30.12 in 10.0 mi NW 11.5 mph - 0.00 in   Overcast
5:54 PM 33.1 °F 23.4 °F 27.0 °F 78% 30.20 in 10.0 mi WNW 13.8 mph - 0.00 in   Overcast
6:17 PM 33.8 °F 24.8 °F 26.6 °F 75% 30.13 in 3.0 mi WNW 12.7 mph - 0.00 in Snow Light Snow
6:25 PM 32.0 °F 23.6 °F 28.4 °F 87% 30.13 in 6.0 mi WNW 10.4 mph - 0.00 in Snow Light Snow
6:49 PM 33.8 °F 27.0 °F 26.6 °F 75% 30.14 in 6.0 mi WNW 8.1 mph - 0.00 in Snow Light Snow
6:54 PM 33.1 °F 24.4 °F 27.0 °F 78% 30.22 in 6.0 mi WNW 11.5 mph - 0.00 in Snow Light Snow
7:54 PM 33.1 °F 25.5 °F 27.0 °F 78% 30.22 in 10.0 mi West 9.2 mph - 0.00 in   Overcast
8:54 PM 33.1 °F 26.1 °F 27.0 °F 78% 30.24 in 10.0 mi WNW 8.1 mph - N/A   Overcast
9:54 PM 32.0 °F 24.2 °F 27.0 °F 82% 30.25 in 10.0 mi NW 9.2 mph - N/A   Overcast
10:54 PM 32.0 °F 25.6 °F 26.1 °F 79% 30.25 in 10.0 mi NW 6.9 mph - N/A   Overcast
11:09 PM 32.0 °F 25.6 °F 26.6 °F 80% 30.18 in 10.0 mi NW 6.9 mph - N/A   Overcast
11:19 PM 32.0 °F 24.8 °F 26.6 °F 80% 30.18 in 10.0 mi NW 8.1 mph - N/A   Overcast
11:54 PM 32.0 °F 25.6 °F 26.1 °F 79% 30.25 in 10.0 mi WNW 6.9 mph - N/A   Overcast